Location: Moy Burn
(57.3833°N, 4.0667°W)
Time: 10:02:53
(UTC+00:00)

USA 238 - Pass Details

Date: 08 August 2020
Orbit: 1006 x 1206 km, 63.4° (Epoch: 17 September)

Event Time Altitude Azimuth Distance (km) Brightness Sun altitude
Rises 22:20:39 0° 207° (SSW) 3,753 6.2 -12.6°
Reaches altitude 10° 22:23:16 10° 202° (SSW) 2,822 5.6 -12.8°
Maximum altitude 22:29:39 51° 129° (SE) 1,308 3.8 -13.2°
Drops below altitude 10° 22:36:22 10° 56° (NE) 2,960 6.1 -13.6°
Sets 22:39:10 0° 52° (NE) 3,951 6.8 -13.8°
